TimeCST,TemperatureF,Dew PointF,Humidity,Sea Level PressureIn,VisibilityMPH,Wind Direction,Wind SpeedMPH,Gust SpeedMPH,PrecipitationIn,Events,Conditions,WindDirDegrees,DateUTC
12:15 AM,21.2,12.2,68,30.16,10.0,North,-9999.0,-,N/A,,Clear,0,2013-01-15 06:15:00
12:35 AM,21.2,12.2,68,30.15,10.0,North,-9999.0,-,N/A,,Clear,0,2013-01-15 06:35:00
12:55 AM,19.4,12.2,74,30.16,10.0,North,-9999.0,-,N/A,,Clear,0,2013-01-15 06:55:00
1:15 AM,17.6,12.2,79,30.14,10.0,North,-9999.0,-,N/A,,Clear,0,2013-01-15 07:15:00
1:35 AM,19.4,12.2,74,30.15,10.0,North,-9999.0,-,N/A,,Clear,0,2013-01-15 07:35:00
1:55 AM,17.6,12.2,79,30.15,10.0,North,-9999.0,-,N/A,,Clear,0,2013-01-15 07:55:00
2:15 AM,19.4,12.2,74,30.15,10.0,North,-9999.0,-,N/A,,Mostly Cloudy,0,2013-01-15 08:15:00
2:35 AM,19.4,12.2,74,30.15,10.0,North,-9999.0,-,N/A,,Mostly Cloudy,0,2013-01-15 08:35:00
2:55 AM,21.2,12.2,68,30.16,10.0,North,-9999.0,-,N/A,,Scattered Clouds,0,2013-01-15 08:55:00
3:15 AM,21.2,14.0,74,30.16,10.0,North,-9999.0,-,N/A,,Scattered Clouds,0,2013-01-15 09:15:00
3:35 AM,19.4,14.0,80,30.16,10.0,North,-9999.0,-,N/A,,Clear,0,2013-01-15 09:35:00
3:55 AM,19.4,14.0,80,30.16,10.0,North,-9999.0,-,N/A,,Scattered Clouds,0,2013-01-15 09:55:00
5:15 AM,17.6,12.2,79,30.14,10.0,North,-9999.0,-,N/A,,Clear,0,2013-01-15 11:15:00
5:35 AM,15.8,12.2,86,30.14,10.0,North,-9999.0,-,N/A,,Clear,0,2013-01-15 11:35:00
5:55 AM,15.8,10.4,79,30.14,10.0,North,-9999.0,-,N/A,,Clear,0,2013-01-15 11:55:00
6:15 AM,14.0,10.4,86,30.14,10.0,North,-9999.0,-,N/A,,Clear,0,2013-01-15 12:15:00
6:35 AM,14.0,10.4,86,30.14,10.0,North,-9999.0,-,N/A,,Clear,0,2013-01-15 12:35:00
6:55 AM,14.0,10.4,86,30.15,10.0,North,-9999.0,-,N/A,,Clear,0,2013-01-15 12:55:00
7:15 AM,14.0,10.4,86,30.15,10.0,North,-9999.0,-,N/A,,Clear,0,2013-01-15 13:15:00
7:35 AM,14.0,10.4,86,30.15,10.0,North,-9999.0,-,N/A,,Clear,0,2013-01-15 13:35:00
7:55 AM,12.2,8.6,85,30.16,10.0,North,-9999.0,-,N/A,,Clear,0,2013-01-15 13:55:00
8:15 AM,12.2,8.6,85,30.16,10.0,North,-9999.0,-,N/A,,Clear,0,2013-01-15 14:15:00
8:35 AM,14.0,10.4,86,30.16,10.0,North,-9999.0,-,N/A,,Clear,0,2013-01-15 14:35:00
8:55 AM,17.6,12.2,79,30.17,10.0,North,-9999.0,-,N/A,,Clear,0,2013-01-15 14:55:00
9:15 AM,19.4,14.0,80,30.17,10.0,North,-9999.0,-,N/A,,Clear,0,2013-01-15 15:15:00
9:35 AM,21.2,14.0,74,30.18,10.0,North,-9999.0,-,N/A,,Clear,0,2013-01-15 15:35:00
9:55 AM,23.0,14.0,68,30.19,10.0,North,-9999.0,-,N/A,,Clear,0,2013-01-15 15:55:00
10:15 AM,24.8,15.8,69,30.19,10.0,North,-9999.0,-,N/A,,Clear,0,2013-01-15 16:15:00
10:35 AM,26.6,17.6,69,30.19,10.0,North,-9999.0,-,N/A,,Clear,0,2013-01-15 16:35:00
10:55 AM,28.4,15.8,59,30.18,10.0,North,-9999.0,-,N/A,,Clear,0,2013-01-15 16:55:00
11:15 AM,28.4,17.6,64,30.18,10.0,North,-9999.0,-,N/A,,Clear,0,2013-01-15 17:15:00
11:35 AM,30.2,14.0,51,30.17,10.0,North,-9999.0,-,N/A,,Scattered Clouds,0,2013-01-15 17:35:00
11:55 AM,30.2,14.0,51,30.17,10.0,North,-9999.0,-,N/A,,Mostly Cloudy,0,2013-01-15 17:55:00
12:15 PM,30.2,14.0,51,30.17,10.0,North,-9999.0,-,N/A,,Mostly Cloudy,0,2013-01-15 18:15:00
12:35 PM,28.4,14.0,55,30.16,10.0,North,-9999.0,-,N/A,,Scattered Clouds,0,2013-01-15 18:35:00
12:55 PM,30.2,14.0,51,30.15,10.0,North,-9999.0,-,N/A,,Scattered Clouds,0,2013-01-15 18:55:00
1:35 PM,30.2,15.8,55,30.14,10.0,North,-9999.0,-,N/A,,Scattered Clouds,0,2013-01-15 19:35:00
1:55 PM,28.4,14.0,55,30.14,10.0,North,-9999.0,-,N/A,,Scattered Clouds,0,2013-01-15 19:55:00
2:15 PM,30.2,15.8,55,30.14,10.0,North,-9999.0,-,N/A,,Scattered Clouds,0,2013-01-15 20:15:00
2:35 PM,30.2,14.0,51,30.14,10.0,North,-9999.0,-,N/A,,Scattered Clouds,0,2013-01-15 20:35:00
2:55 PM,30.2,14.0,51,30.15,10.0,North,-9999.0,-,N/A,,Scattered Clouds,0,2013-01-15 20:55:00
3:15 PM,30.2,14.0,51,30.15,10.0,North,-9999.0,-,N/A,,Mostly Cloudy,0,2013-01-15 21:15:00
3:35 PM,30.2,15.8,55,30.15,10.0,North,-9999.0,-,N/A,,Mostly Cloudy,0,2013-01-15 21:35:00
3:55 PM,30.2,15.8,55,30.16,10.0,North,-9999.0,-,N/A,,Overcast,0,2013-01-15 21:55:00
4:15 PM,30.2,15.8,55,30.16,10.0,North,-9999.0,-,N/A,,Overcast,0,2013-01-15 22:15:00
4:55 PM,30.2,15.8,55,30.16,10.0,North,-9999.0,-,N/A,,Clear,0,2013-01-15 22:55:00
5:15 PM,30.2,15.8,55,30.17,10.0,North,-9999.0,-,N/A,,Clear,0,2013-01-15 23:15:00
5:35 PM,30.2,15.8,55,30.17,10.0,North,-9999.0,-,N/A,,Clear,0,2013-01-15 23:35:00
5:55 PM,28.4,17.6,64,30.17,10.0,North,-9999.0,-,N/A,,Clear,0,2013-01-15 23:55:00
6:15 PM,26.6,17.6,69,30.17,10.0,North,-9999.0,-,N/A,,Clear,0,2013-01-16 00:15:00
6:35 PM,26.6,17.6,69,30.17,10.0,North,-9999.0,-,N/A,,Clear,0,2013-01-16 00:35:00
6:55 PM,23.0,15.8,74,30.18,10.0,North,-9999.0,-,N/A,,Clear,0,2013-01-16 00:55:00
7:15 PM,23.0,15.8,74,30.18,10.0,North,-9999.0,-,N/A,,Clear,0,2013-01-16 01:15:00
7:35 PM,23.0,17.6,80,30.18,10.0,North,-9999.0,-,N/A,,Clear,0,2013-01-16 01:35:00
7:55 PM,23.0,17.6,80,30.18,10.0,North,-9999.0,-,N/A,,Clear,0,2013-01-16 01:55:00
8:15 PM,21.2,15.8,80,30.19,10.0,North,-9999.0,-,N/A,,Clear,0,2013-01-16 02:15:00
8:35 PM,21.2,15.8,80,30.19,10.0,North,-9999.0,-,N/A,,Clear,0,2013-01-16 02:35:00
8:55 PM,19.4,14.0,80,30.19,10.0,North,-9999.0,-,N/A,,Clear,0,2013-01-16 02:55:00
9:15 PM,17.6,14.0,86,30.20,10.0,North,-9999.0,-,N/A,,Clear,0,2013-01-16 03:15:00
9:35 PM,17.6,12.2,79,30.19,10.0,North,-9999.0,-,N/A,,Clear,0,2013-01-16 03:35:00
9:55 PM,17.6,12.2,79,30.19,10.0,North,-9999.0,-,N/A,,Clear,0,2013-01-16 03:55:00
10:15 PM,17.6,12.2,79,30.18,10.0,North,-9999.0,-,N/A,,Clear,0,2013-01-16 04:15:00
10:35 PM,17.6,12.2,79,30.19,10.0,North,-9999.0,-,N/A,,Clear,0,2013-01-16 04:35:00
10:55 PM,17.6,12.2,79,30.19,10.0,North,-9999.0,-,N/A,,Clear,0,2013-01-16 04:55:00
11:15 PM,17.6,12.2,79,30.19,10.0,North,-9999.0,-,N/A,,Clear,0,2013-01-16 05:15:00
11:35 PM,17.6,12.2,79,30.18,10.0,North,-9999.0,-,N/A,,Clear,0,2013-01-16 05:35:00